Find KA-Sat

NORAD ID: 37258 Int'l Des: 2010-069 Owner: EUTSA Country: F operational
HEOCIRCULARGSOGEO

現在のビュー

3D地球を読み込み中...

About KA-Sat

KA-Sat (NORAD 37258) is a satellite launched Dec 26, 2010 by EUTSA of F. It operates in HEO, CIRCULAR, GSO, GEO orbit with a mass of 5800.00 kg.

次回通過

Passes for default location (London). Set your location on the main map for personalized predictions.

高度履歴

Loading altitude history...

軌道要素

1 37258U 10069A 26195.13309500 .00000055 00000-0 00000+0 0 9994
2 37258 0.0613 354.8085 0004449 150.1140 203.9806 1.00273059 44275
Epoch: Jul 14, 2026 • Age: 14 hours

現在のステータス

高度 35775.1 km
遠地点 / 近地点 N/A
速度 3.08 km/s
衛星直下点 -0.02°S, 9.04°E
打ち上げ日 Dec 26, 2010
運用期間 15.5 years
タイプ other

技術仕様

分類 Payload
質量 5800.00 kg
乾燥質量 3000.00 kg
総質量 5800.00 kg
長さ 4.50 m
直径 2.40 m
スパン 39.40 m
形状 Box + 2 Pan + Dish
製造者 EADSB
バスタイプ Eurostar 3000
フェーズステータス Renamed
所有者/国 EUTSA/F

Most Searched